Tracking 18980 objects as of 19-Feb-2018
HD Live streaming from Space Station
objects crossing your sky now

MOLNIYA 1-53

Track MOLNIYA 1-53 now!
MOLNIYA 1-53 is classified as:


NORAD ID: 13070
Int'l Code: 1982-015A
Perigee: 630.3 km
Apogee: 39,743.5 km
Inclination: 62.5 °
Period: 717.9 minutes
Semi major axis: 26557 km
RCS: 15.1776 m2 (large)
Launch date: February 26, 1982
Source: Commonwealth of Independent States (former USSR) (CIS)
Launch site: PLESETSK MISSILE AND SPACE COMPLEX (PKMTR)
aabbcc
Your satellite tracking list
Your tracking list is empty




NASA's NSSDC Master Catalog

Two Line Element Set (TLE):
1 13070U 82015A   18049.65112293 +.00000588 +00000-0 +48666-3 0  9992
2 13070 062.4596 103.4751 7363763 265.3441 334.6215 02.00591650263559
Source of the keplerian elements: AFSPC